Weather History for Kinston, NC

Change the Weather History Date:

Wednesday, September 12, 2012

  Actual Average Record
Temperature  
Mean Temperature 64 °F -  
Max Temperature 78 °F 81 °F 99 °F (1983)
Min Temperature 51 °F 64 °F 45 °F (1976)
Growing Degree Days 14 (Base 50)    
Moisture  
Dew Point 55 °F    
Average Humidity 81    
Maximum Humidity 100    
Minimum Humidity 41    
Precipitation  
Precipitation 0.00 in - - ()
Sea Level Pressure  
Sea Level Pressure 30.32 in    
Wind  
Wind Speed 1 mph (NE)    
Max Wind Speed 9 mph    
Max Gust Speed -    
Visibility 9 miles    
Events      
Averages and records for this station are not official NWS values.
T = Trace of Precipitation, MM = Missing Value Source: NWS Daily Summary

Daily Weather History Graph

Daily Weather History Graph

Search for Another Location

Airport:

Trip Planner

Search our weather history database for the weather conditions in past years. The results will help you decide how hot, cold, wet, or windy it might be!

Date:

Astronomy

Sep. 12, 2012 Rise Set
Actual Time 6:51 AM EDT 7:21 PM EDT
Civil Twilight 6:25 AM EDT 7:46 PM EDT
Nautical Twilight 5:55 AM EDT 8:16 PM EDT
Astronomical Twilight 5:25 AM EDT 8:47 PM EDT
Moon 3:12 AM EDT (9/12) 5:02 PM EDT (9/12)
Length of Visible Light 13h 20m
Length of Day
12h 29m
Waning Crescent, 14% of the Moon is Illuminated
Sep 12
Waning Crescent
Sep 15
New
Sep 22
First Quarter
Sep 29
Full
Oct 8
Last Quarter

Hourly Weather History & Observations

Time (EDT) Temp. Dew Point Humidity Pressure Visibility Wind Dir Wind Speed Gust Speed Precip Events Conditions
12:35 AM 59.0 °F 55.4 °F 88% 30.32 in 10.0 mi Calm Calm - N/A   Clear
12:55 AM 57.2 °F 55.4 °F 94% 30.32 in 10.0 mi Calm Calm - N/A   Clear
1:15 AM 59.0 °F 55.4 °F 88% 30.32 in 10.0 mi Calm Calm - N/A   Clear
1:35 AM 55.4 °F 53.6 °F 94% 30.32 in 10.0 mi Calm Calm - N/A   Clear
1:55 AM 55.4 °F 53.6 °F 94% 30.31 in 10.0 mi Calm Calm - N/A   Clear
2:15 AM 55.4 °F 53.6 °F 94% 30.31 in 10.0 mi Calm Calm - N/A   Clear
2:35 AM 55.4 °F 53.6 °F 94% 30.31 in 10.0 mi Calm Calm - N/A   Clear
2:55 AM 53.6 °F 53.6 °F 100% 30.31 in 10.0 mi Calm Calm - N/A   Clear
3:15 AM 53.6 °F 53.6 °F 100% 30.30 in 10.0 mi Calm Calm - N/A   Clear
3:35 AM 53.6 °F 51.8 °F 94% 30.30 in 7.0 mi Calm Calm - N/A   Clear
3:55 AM 53.6 °F 51.8 °F 94% 30.30 in 7.0 mi Calm Calm - N/A   Clear
4:15 AM 53.6 °F 51.8 °F 94% 30.30 in 10.0 mi Calm Calm - N/A   Clear
4:35 AM 51.8 °F 51.8 °F 100% 30.30 in 10.0 mi Calm Calm - N/A   Clear
4:55 AM 51.8 °F 51.8 °F 100% 30.30 in 10.0 mi Calm Calm - N/A   Clear
5:15 AM 51.8 °F 51.8 °F 100% 30.30 in 7.0 mi Calm Calm - N/A   Clear
5:35 AM 51.8 °F 50.0 °F 94% 30.31 in 10.0 mi Calm Calm - N/A   Clear
5:55 AM 51.8 °F 50.0 °F 94% 30.31 in 10.0 mi Calm Calm - N/A   Clear
6:15 AM 51.8 °F 50.0 °F 94% 30.32 in 10.0 mi Calm Calm - N/A   Clear
6:35 AM 51.8 °F 50.0 °F 94% 30.32 in 7.0 mi Calm Calm - N/A   Clear
6:55 AM 51.8 °F 50.0 °F 94% 30.33 in 5.0 mi Calm Calm - N/A   Clear
6:56 AM 51.8 °F 50.0 °F 94% 30.33 in 3.0 mi Calm Calm - N/A   Clear
7:56 AM 55.4 °F 55.4 °F 100% 30.35 in 7.0 mi Calm Calm - N/A   Clear
8:56 AM 62.6 °F 59.0 °F 88% 30.35 in 10.0 mi North 5.8 mph - N/A   Clear
9:56 AM 68.0 °F 59.0 °F 73% 30.37 in 10.0 mi NE 5.8 mph - N/A   Clear
10:56 AM 73.4 °F 57.2 °F 57% 30.37 in 10.0 mi NNE 8.1 mph - N/A   Clear
11:56 AM 75.2 °F 53.6 °F 47% 30.36 in 10.0 mi NNE 9.2 mph - N/A   Clear
12:56 PM 77.0 °F 51.8 °F 41% 30.35 in 10.0 mi NE 8.1 mph - N/A   Clear
1:56 PM 77.0 °F 55.4 °F 47% 30.33 in 10.0 mi NNE 4.6 mph - N/A   Clear
2:56 PM 78.8 °F 57.2 °F 47% 30.31 in 10.0 mi East 6.9 mph - N/A   Partly Cloudy
3:56 PM 78.8 °F 55.4 °F 44% 30.29 in 10.0 mi North 4.6 mph - N/A   Partly Cloudy
4:56 PM 78.8 °F 55.4 °F 44% 30.29 in 10.0 mi ENE 4.6 mph - N/A   Partly Cloudy
5:56 PM 78.8 °F 55.4 °F 44% 30.29 in 10.0 mi ENE 5.8 mph - N/A   Partly Cloudy
6:56 PM 75.2 °F 57.2 °F 53% 30.29 in 10.0 mi NE 4.6 mph - N/A   Clear
9:15 PM 68.0 °F 59.0 °F 73% 30.33 in 10.0 mi ENE 4.6 mph - N/A   Clear
9:35 PM 68.0 °F 59.0 °F 73% 30.33 in 10.0 mi ENE 4.6 mph - N/A   Scattered Clouds
9:55 PM 64.4 °F 59.0 °F 83% 30.33 in 10.0 mi NE 4.6 mph - N/A   Scattered Clouds
10:15 PM 64.4 °F 59.0 °F 83% 30.33 in 10.0 mi ENE 5.8 mph - N/A   Clear
10:35 PM 64.4 °F 57.2 °F 77% 30.33 in 10.0 mi ENE 4.6 mph - N/A   Clear
10:55 PM 64.4 °F 57.2 °F 77% 30.33 in 10.0 mi NE 4.6 mph - N/A   Clear
11:15 PM 62.6 °F 57.2 °F 82% 30.33 in 10.0 mi NE 3.5 mph - N/A   Clear
11:35 PM 62.6 °F 57.2 °F 82% 30.33 in 10.0 mi NE 3.5 mph - N/A   Clear
11:55 PM 60.8 °F 57.2 °F 88% 30.33 in 10.0 mi Calm Calm - N/A   Clear